Weather History for Carbondale, IL

Change the Weather History Date:

Saturday, December 28, 2013

  Actual Average Record
Temperature  
Mean Temperature 42 °F -  
Max Temperature 50 °F 40 °F 68 °F (1928)
Min Temperature 33 °F 23 °F -10 °F (1924)
Degree Days  
Heating Degree Days 24    
Moisture  
Dew Point 31 °F    
Average Humidity 69    
Maximum Humidity 85    
Minimum Humidity 48    
Precipitation  
Precipitation 0.00 in - - ()
Sea Level Pressure  
Sea Level Pressure 30.17 in    
Wind  
Wind Speed 7 mph (South)    
Max Wind Speed 12 mph    
Max Gust Speed -    
Visibility 10 miles    
Events Rain    
Averages and records for this station are not official NWS values.
T = Trace of Precipitation, MM = Missing Value Source: NWS Daily Summary

Daily Weather History Graph

Daily Weather History Graph

Search for Another Location

Airport:

Trip Planner

Search our weather history database for the weather conditions in past years. The results will help you decide how hot, cold, wet, or windy it might be!

Date:

Astronomy

Dec. 28, 2013 Rise Set
Actual Time 7:11 AM CST 4:45 PM CST
Civil Twilight 6:42 AM CST 5:15 PM CST
Nautical Twilight 6:09 AM CST 5:48 PM CST
Astronomical Twilight 5:37 AM CST 6:20 PM CST
Moon 2:50 AM CST (12/28) 1:34 PM CST (12/28)
Length of Visible Light 10h 33m
Length of Day
9h 34m
Waning Crescent, 19% of the Moon is Illuminated
Dec 28
Waning Crescent
Jan 1
New
Jan 7
First Quarter
Jan 15
Full
Jan 23
Last Quarter

Hourly Weather History & Observations

Time (CST) Temp. Windchill Dew Point Humidity Pressure Visibility Wind Dir Wind Speed Gust Speed Precip Events Conditions
12:52 AM 37.0 °F 29.3 °F 32.0 °F 82% 30.30 in 10.0 mi SSW 11.5 mph - N/A   Clear
1:52 AM 36.0 °F 30.3 °F 30.0 °F 79% 30.31 in 10.0 mi SSW 6.9 mph - N/A   Clear
2:52 AM 36.0 °F 30.3 °F 30.0 °F 79% 30.30 in 10.0 mi South 6.9 mph - N/A   Clear
3:52 AM 35.1 °F 29.3 °F 28.9 °F 78% 30.28 in 10.0 mi South 6.9 mph - N/A   Clear
4:52 AM 34.0 °F 28.0 °F 28.9 °F 82% 30.27 in 10.0 mi SSE 6.9 mph - N/A   Clear
5:52 AM 33.1 °F 26.9 °F 28.0 °F 82% 30.27 in 10.0 mi South 6.9 mph - N/A   Clear
6:52 AM 34.0 °F 28.8 °F 28.9 °F 82% 30.27 in 10.0 mi South 5.8 mph - N/A   Clear
7:52 AM 35.1 °F 32.2 °F 30.9 °F 85% 30.26 in 10.0 mi South 3.5 mph - N/A   Clear
8:52 AM 37.0 °F 34.5 °F 32.0 °F 82% 30.27 in 10.0 mi SSE 3.5 mph - N/A   Clear
9:52 AM 45.0 °F 41.8 °F 34.0 °F 65% 30.27 in 10.0 mi South 5.8 mph - N/A   Clear
10:52 AM 46.9 °F - 35.1 °F 63% 30.25 in 10.0 mi South 5.8 mph - N/A   Clear
11:52 AM 48.0 °F - 34.0 °F 58% 30.21 in 10.0 mi South 9.2 mph - N/A   Clear
12:52 PM 48.9 °F - 33.1 °F 54% 30.19 in 10.0 mi South 8.1 mph - N/A   Clear
1:52 PM 50.0 °F - 33.1 °F 52% 30.14 in 10.0 mi South 9.2 mph - N/A   Clear
2:52 PM 48.9 °F - 30.0 °F 48% 30.12 in 10.0 mi SSW 10.4 mph - N/A   Clear
3:52 PM 46.0 °F 42.5 °F 32.0 °F 58% 30.10 in 10.0 mi South 6.9 mph - N/A   Clear
4:52 PM 44.1 °F 40.1 °F 32.0 °F 63% 30.09 in 10.0 mi SSE 6.9 mph - N/A   Clear
5:52 PM 44.1 °F 40.1 °F 30.0 °F 58% 30.08 in 10.0 mi South 6.9 mph - N/A   Clear
6:52 PM 42.1 °F 40.2 °F 30.0 °F 62% 30.06 in 10.0 mi SSE 3.5 mph - N/A   Clear
7:52 PM 43.0 °F 41.3 °F 28.9 °F 58% 30.04 in 10.0 mi SSE 3.5 mph - N/A   Mostly Cloudy
8:52 PM 42.1 °F 37.1 °F 30.9 °F 65% 30.01 in 10.0 mi SSE 8.1 mph - N/A   Overcast
9:52 PM 43.0 °F 37.7 °F 30.9 °F 62% 30.01 in 10.0 mi South 9.2 mph - N/A   Overcast
10:52 PM 42.1 °F 39.2 °F 33.1 °F 70% 29.99 in 10.0 mi SSE 4.6 mph - N/A Rain Light Rain
11:52 PM 39.9 °F 37.8 °F 35.1 °F 83% 29.96 in 10.0 mi South 3.5 mph - N/A   Overcast